Iron Mountain, MI

7:47 PM CST on February 23, 2017 (GMT -0600)
Ford

Weather History for KIMT - June, 2012

Change the Weather History Date:

Friday, June 29, 2012

  Actual Average Record
Temperature  
Mean Temperature 73 °F -  
Max Temperature 90 °F 78 °F 100 °F (1931)
Min Temperature 57 °F 54 °F 35 °F (1988)
Cooling Degree Days 8    
Growing Degree Days 23 (Base 50)    
Moisture  
Dew Point 54 °F    
Average Humidity 51    
Maximum Humidity 87    
Minimum Humidity 27    
Precipitation  
Precipitation 0.00 in - - ()
Sea Level Pressure  
Sea Level Pressure 29.77 in    
Wind  
Wind Speed 6 mph (West)    
Max Wind Speed 17 mph    
Max Gust Speed 30 mph    
Visibility 10 miles    
Events      
Averages and records for this station are not official NWS values.
T = Trace of Precipitation, MM = Missing Value Source: NWS Daily Summary

Daily Weather History Graph

Daily Weather History Graph

Search for Another Location

Airport or City:

Trip Planner

Search our weather history database for the weather conditions in past years. The results will help you decide how hot, cold, wet, or windy it might be!

Date:

Astronomy

Jun. 29, 2012 Rise Set
Actual Time 5:05 AM CDT 8:46 PM CDT
Civil Twilight 4:27 AM CDT 9:24 PM CDT
Nautical Twilight 3:36 AM CDT 10:15 PM CDT
Astronomical Twilight 2:26 AM CDT 11:25 PM CDT
Moon 4:26 PM CDT (6/29) 1:24 AM CDT (6/29)
Length of Visible Light 16h 57m
Length of Day
15h 40m
Waxing Gibbous, 78% of the Moon is Illuminated
Jun 29
Waxing Gibbous
Jul 3
Full
Jul 10
Last Quarter
Jul 18
New
Jul 26
First Quarter

Hourly Weather History & Observations

Time (CDT) Temp. Heat Index Dew Point Humidity Pressure Visibility Wind Dir Wind Speed Gust Speed Precip Events Conditions
12:54 AM 62.1 °F - 55.0 °F 78% 29.81 in 10.0 mi Calm Calm - N/A   Clear
1:54 AM 62.1 °F - 54.0 °F 75% 29.81 in 10.0 mi Calm Calm - N/A   Clear
2:54 AM 59.0 °F - 54.0 °F 83% 29.81 in 10.0 mi Calm Calm - N/A   Clear
3:54 AM 57.9 °F - 54.0 °F 87% 29.81 in 10.0 mi Calm Calm - N/A   Clear
4:54 AM 62.1 °F - 55.0 °F 78% 29.81 in 10.0 mi West 4.6 mph - N/A   Clear
5:54 AM 62.1 °F - 54.0 °F 75% 29.82 in 10.0 mi Variable 3.5 mph - N/A   Clear
7:54 AM 71.1 °F - 55.0 °F 57% 29.82 in 10.0 mi WNW 8.1 mph - N/A   Clear
8:54 AM 75.9 °F - 55.9 °F 50% 29.81 in 10.0 mi West 6.9 mph - N/A   Clear
9:54 AM 79.0 °F - 54.0 °F 42% 29.80 in 10.0 mi NW 11.5 mph - N/A   Clear
10:54 AM 82.0 °F - 52.0 °F 35% 29.79 in 10.0 mi West 11.5 mph - N/A   Clear
11:54 AM 84.9 °F - 50.0 °F 30% 29.78 in 10.0 mi WNW 12.7 mph 23.0 mph N/A   Clear
12:54 PM 87.1 °F - 51.1 °F 29% 29.78 in 10.0 mi West 15.0 mph 23.0 mph N/A   Clear
1:54 PM 88.0 °F - 51.1 °F 28% 29.78 in 10.0 mi West 16.1 mph 26.5 mph N/A   Clear
2:54 PM 88.0 °F - 51.1 °F 28% 29.76 in 10.0 mi West 17.3 mph 29.9 mph N/A   Partly Cloudy
3:54 PM 89.1 °F - 51.1 °F 27% 29.74 in 10.0 mi WNW 16.1 mph 26.5 mph N/A   Clear
4:54 PM 88.0 °F 85.9 °F 54.0 °F 31% 29.71 in 10.0 mi West 11.5 mph 18.4 mph N/A   Partly Cloudy
5:54 PM 87.1 °F 85.7 °F 55.9 °F 35% 29.71 in 10.0 mi West 9.2 mph 19.6 mph N/A   Clear
6:54 PM 84.9 °F 83.6 °F 55.0 °F 36% 29.70 in 10.0 mi WNW 13.8 mph 21.9 mph N/A   Clear
7:54 PM 82.9 °F 82.1 °F 55.9 °F 39% 29.70 in 10.0 mi West 6.9 mph - N/A   Clear
8:54 PM 79.0 °F - 57.0 °F 47% 29.72 in 10.0 mi West 5.8 mph - N/A   Clear
9:54 PM 75.9 °F - 57.9 °F 54% 29.73 in 10.0 mi WSW 3.5 mph - N/A   Clear
10:54 PM 75.0 °F - 57.9 °F 55% 29.72 in 10.0 mi West 5.8 mph - N/A   Scattered Clouds
11:54 PM 68.0 °F - 59.0 °F 73% 29.73 in 10.0 mi NNW 3.5 mph - N/A   Clear